�������l�o���
Date,Time,MP-1(��Sv/h),MP-2(��Sv/h),MP-3(��Sv/h),MP-4(��Sv/h),MP-5(��Sv/h),MP-6(��Sv/h),MP-7(��Sv/h),MP-8(��Sv/h),����,����(m/s),���J
2021/08/21,00:00,0.593,0.887,0.556,1.069,0.751,0.361,0.626,0.585,�k�k��,2.6,��
2021/08/21,00:10,0.592,0.887,0.555,1.069,0.753,0.362,0.623,0.586,�k�k��,2.2,��
2021/08/21,00:20,0.593,0.886,0.555,1.066,0.751,0.362,0.625,0.586,�k�k��,2.3,��
2021/08/21,00:30,0.591,0.886,0.555,1.067,0.751,0.363,0.625,0.587,�k�k��,2.2,��
2021/08/21,00:40,0.591,0.887,0.555,1.068,0.751,0.364,0.623,0.586,�k�k��,2.3,��
2021/08/21,00:50,0.591,0.886,0.555,1.070,0.752,0.362,0.624,0.587,�k�k��,2.6,��
2021/08/21,01:00,0.592,0.886,0.555,1.068,0.751,0.362,0.624,0.586,�k�k��,2.2,��
2021/08/21,01:10,0.592,0.885,0.557,1.069,0.751,0.362,0.624,0.586,�k,2.0,��
2021/08/21,01:20,0.593,0.885,0.556,1.066,0.751,0.361,0.626,0.587,�k,2.3,��
2021/08/21,01:30,0.591,0.887,0.555,1.067,0.751,0.362,0.624,0.585,�k�k��,2.8,��
2021/08/21,01:40,0.591,0.884,0.556,1.068,0.752,0.362,0.623,0.587,�k�k��,2.6,��
2021/08/21,01:50,0.593,0.885,0.556,1.068,0.752,0.361,0.623,0.588,�k�k��,2.3,��
2021/08/21,02:00,0.592,0.884,0.556,1.069,0.753,0.361,0.624,0.587,�k�k��,1.7,��
2021/08/21,02:10,0.592,0.886,0.556,1.069,0.751,0.362,0.622,0.588,�k�k��,2.5,��
2021/08/21,02:20,0.591,0.886,0.558,1.069,0.750,0.362,0.623,0.587,�k,2.6,��
2021/08/21,02:30,0.593,0.886,0.555,1.069,0.750,0.363,0.624,0.586,�k,2.6,��
2021/08/21,02:40,0.591,0.884,0.557,1.066,0.752,0.361,0.623,0.587,�k,2.5,��
2021/08/21,02:50,0.592,0.887,0.555,1.068,0.751,0.361,0.624,0.587,�k,2.3,��
2021/08/21,03:00,0.592,0.887,0.556,1.066,0.753,0.361,0.624,0.587,�k,2.6,��
2021/08/21,03:10,0.593,0.886,0.556,1.065,0.751,0.361,0.624,0.587,�k,2.9,��
2021/08/21,03:20,0.592,0.887,0.555,1.068,0.749,0.361,0.625,0.587,�k,2.6,��
2021/08/21,03:30,0.593,0.884,0.556,1.068,0.750,0.363,0.623,0.587,�k,2.6,��
2021/08/21,03:40,0.592,0.883,0.555,1.067,0.751,0.361,0.624,0.587,�k,3.1,��
2021/08/21,03:50,0.591,0.883,0.555,1.067,0.751,0.362,0.624,0.588,�k,2.8,��
2021/08/21,04:00,0.592,0.886,0.555,1.068,0.749,0.362,0.624,0.587,�k�k��,2.2,��
2021/08/21,04:10,0.591,0.884,0.555,1.066,0.751,0.362,0.623,0.587,�k�k��,2.6,��
2021/08/21,04:20,0.591,0.886,0.556,1.067,0.750,0.362,0.625,0.585,�k�k��,2.0,��
2021/08/21,04:30,0.591,0.885,0.555,1.067,0.753,0.363,0.622,0.586,�k�k��,1.2,��
2021/08/21,04:40,0.592,0.886,0.554,1.069,0.750,0.362,0.623,0.587,�k�k��,2.0,��
2021/08/21,04:50,0.592,0.886,0.555,1.068,0.753,0.362,0.624,0.586,�k�k��,2.0,��
2021/08/21,05:00,0.592,0.884,0.556,1.069,0.751,0.363,0.624,0.587,�k�k��,1.2,��
2021/08/21,05:10,0.592,0.885,0.556,1.068,0.752,0.362,0.623,0.587,�k��,1.7,��
2021/08/21,05:20,0.591,0.884,0.556,1.067,0.750,0.363,0.623,0.587,�k�k��,1.9,��
2021/08/21,05:30,0.593,0.886,0.556,1.067,0.752,0.362,0.623,0.586,�k�k��,1.7,��
2021/08/21,05:40,0.591,0.884,0.555,1.067,0.752,0.362,0.625,0.588,�k�k��,2.3,��
2021/08/21,05:50,0.592,0.884,0.556,1.065,0.753,0.362,0.624,0.586,�k�k��,1.9,��
2021/08/21,06:00,0.593,0.885,0.556,1.068,0.753,0.361,0.623,0.588,�k,2.5,��
2021/08/21,06:10,0.593,0.884,0.556,1.065,0.751,0.362,0.623,0.587,�k,3.5,��
2021/08/21,06:20,0.593,0.887,0.555,1.067,0.751,0.363,0.623,0.586,�k,3.2,��
2021/08/21,06:30,0.593,0.884,0.553,1.068,0.752,0.362,0.624,0.587,�k,3.3,��
2021/08/21,06:40,0.592,0.884,0.555,1.067,0.751,0.361,0.625,0.587,�k�k��,3.1,��
2021/08/21,06:50,0.593,0.883,0.556,1.068,0.753,0.361,0.624,0.587,�k,2.6,��
2021/08/21,07:00,0.592,0.886,0.555,1.067,0.750,0.361,0.624,0.586,�k�k��,3.0,��
2021/08/21,07:10,0.589,0.883,0.555,1.068,0.751,0.362,0.624,0.585,�k,3.6,��
2021/08/21,07:20,0.589,0.884,0.553,1.068,0.752,0.361,0.622,0.586,�k,3.7,��
2021/08/21,07:30,0.591,0.881,0.554,1.065,0.750,0.361,0.623,0.585,�k�k��,2.6,��
2021/08/21,07:40,0.591,0.881,0.553,1.066,0.751,0.361,0.622,0.586,�k,3.2,��
2021/08/21,07:50,0.591,0.884,0.556,1.066,0.749,0.361,0.623,0.584,�k,2.9,��
2021/08/21,08:00,0.592,0.883,0.555,1.066,0.750,0.360,0.622,0.585,�k�k��,2.6,��
2021/08/21,08:10,0.590,0.881,0.556,1.068,0.752,0.361,0.623,0.584,�k,2.6,��
2021/08/21,08:20,0.591,0.882,0.555,1.066,0.752,0.362,0.624,0.585,�k�k��,2.9,��
2021/08/21,08:30,0.590,0.881,0.555,1.067,0.753,0.361,0.623,0.584,�k,3.0,��
2021/08/21,08:40,0.591,0.885,0.553,1.067,0.752,0.362,0.622,0.585,�k�k��,2.9,��
2021/08/21,08:50,0.589,0.882,0.555,1.067,0.752,0.360,0.623,0.585,�k�k��,3.0,��
2021/08/21,09:00,0.590,0.882,0.554,1.067,0.749,0.361,0.623,0.583,�k�k��,3.1,��
2021/08/21,09:10,0.591,0.883,0.556,1.067,0.751,0.361,0.622,0.586,�k�k��,2.6,��
2021/08/21,09:20,0.591,0.881,0.557,1.065,0.752,0.362,0.623,0.585,�k�k��,3.1,��
2021/08/21,09:30,0.591,0.883,0.556,1.066,0.750,0.363,0.623,0.585,�k�k��,2.3,��
2021/08/21,09:40,0.591,0.881,0.556,1.068,0.752,0.361,0.624,0.583,�k�k��,3.1,��
2021/08/21,09:50,0.592,0.882,0.556,1.067,0.750,0.361,0.624,0.582,�k�k��,2.9,��
2021/08/21,10:00,0.592,0.884,0.555,1.067,0.752,0.361,0.624,0.584,�k�k��,1.9,��
2021/08/21,10:10,0.591,0.883,0.554,1.068,0.753,0.360,0.624,0.585,�k�k��,2.0,��
2021/08/21,10:20,0.591,0.882,0.554,1.067,0.751,0.361,0.626,0.584,�k�k��,2.9,��
2021/08/21,10:30,0.593,0.885,0.554,1.068,0.752,0.362,0.625,0.583,�k��,2.2,��
2021/08/21,10:40,0.592,0.885,0.555,1.067,0.753,0.362,0.625,0.584,�k�k��,2.6,��
2021/08/21,10:50,0.591,0.883,0.554,1.069,0.750,0.362,0.625,0.585,�k�k��,3.1,��
2021/08/21,11:00,0.594,0.883,0.555,1.067,0.752,0.362,0.624,0.584,�k�k��,3.6,��
2021/08/21,11:10,0.593,0.887,0.555,1.068,0.752,0.362,0.623,0.586,�k�k��,3.3,��
2021/08/21,11:20,0.593,0.887,0.556,1.068,0.754,0.362,0.625,0.584,�k�k��,3.5,��
2021/08/21,11:30,0.592,0.886,0.556,1.068,0.755,0.362,0.624,0.586,�k�k��,3.8,��
2021/08/21,11:40,0.592,0.886,0.555,1.068,0.753,0.361,0.626,0.584,�k�k��,3.7,��
2021/08/21,11:50,0.593,0.886,0.557,1.068,0.752,0.363,0.625,0.585,�k�k��,3.6,��
2021/08/21,12:00,0.593,0.886,0.557,1.072,0.752,0.363,0.625,0.585,�k�k��,4.0,��
2021/08/21,12:10,0.593,0.887,0.556,1.069,0.754,0.363,0.626,0.584,�k�k��,4.4,��
2021/08/21,12:20,0.593,0.889,0.555,1.072,0.755,0.363,0.626,0.586,�k�k��,4.6,��
2021/08/21,12:30,0.594,0.887,0.556,1.073,0.753,0.363,0.626,0.584,�k�k��,4.1,��
2021/08/21,12:40,0.595,0.886,0.557,1.070,0.756,0.362,0.626,0.585,�k�k��,4.0,��
2021/08/21,12:50,0.595,0.887,0.557,1.072,0.755,0.362,0.625,0.586,�k�k��,4.0,��
2021/08/21,13:00,0.594,0.886,0.557,1.072,0.753,0.364,0.626,0.586,�k�k��,3.2,��
2021/08/21,13:10,0.594,0.886,0.558,1.072,0.754,0.362,0.626,0.584,�k,3.6,��
2021/08/21,13:20,0.594,0.886,0.556,1.071,0.753,0.362,0.626,0.584,�k�k��,4.1,��
2021/08/21,13:30,0.594,0.886,0.557,1.070,0.756,0.363,0.624,0.586,�k�k��,5.1,��
2021/08/21,13:40,0.594,0.889,0.556,1.071,0.754,0.363,0.625,0.584,�k�k��,5.2,��
2021/08/21,13:50,0.597,0.888,0.557,1.073,0.756,0.362,0.625,0.584,�k�k��,5.3,��
2021/08/21,14:00,0.593,0.888,0.557,1.072,0.757,0.363,0.628,0.585,�k��,4.5,��
2021/08/21,14:10,0.595,0.887,0.556,1.071,0.756,0.363,0.625,0.585,�k��,4.1,��
2021/08/21,14:20,0.594,0.890,0.557,1.072,0.755,0.363,0.625,0.586,�k��,3.9,��
2021/08/21,14:30,0.595,0.890,0.555,1.074,0.754,0.362,0.626,0.585,�k�k��,3.6,��
2021/08/21,14:40,0.595,0.889,0.555,1.072,0.755,0.362,0.625,0.586,�k�k��,3.6,��
2021/08/21,14:50,0.596,0.889,0.557,1.071,0.755,0.363,0.624,0.585,�k��,3.0,��
2021/08/21,15:00,0.593,0.889,0.558,1.072,0.757,0.362,0.624,0.585,�k�k��,3.2,��
2021/08/21,15:10,0.594,0.888,0.555,1.072,0.754,0.364,0.626,0.584,�k��,2.8,��
2021/08/21,15:20,0.594,0.888,0.556,1.075,0.754,0.362,0.627,0.585,�k�k��,2.3,��
2021/08/21,15:30,0.595,0.889,0.555,1.073,0.758,0.363,0.625,0.586,�k�k��,2.6,��
2021/08/21,15:40,0.595,0.889,0.557,1.073,0.756,0.363,0.625,0.584,�k�k��,2.3,��
2021/08/21,15:50,0.595,0.890,0.557,1.072,0.755,0.362,0.626,0.585,�k�k��,2.0,��
2021/08/21,16:00,0.595,0.889,0.555,1.073,0.756,0.363,0.624,0.583,�k��,1.9,��
2021/08/21,16:10,0.595,0.889,0.556,1.072,0.755,0.363,0.625,0.585,���k��,1.2,��
2021/08/21,16:20,0.595,0.890,0.557,1.075,0.754,0.364,0.625,0.587,���k��,1.2,��
2021/08/21,16:30,0.594,0.887,0.559,1.073,0.756,0.361,0.624,0.584,���k��,1.2,��
2021/08/21,16:40,0.595,0.890,0.558,1.073,0.755,0.362,0.627,0.585,�k,1.2,��
2021/08/21,16:50,0.596,0.892,0.557,1.072,0.756,0.364,0.626,0.587,�k�k��,1.5,��
2021/08/21,17:00,0.596,0.889,0.557,1.073,0.756,0.362,0.626,0.587,�k�k��,1.9,��
2021/08/21,17:10,0.594,0.890,0.558,1.072,0.755,0.362,0.627,0.587,�k,1.7,��
2021/08/21,17:20,0.594,0.888,0.559,1.074,0.755,0.361,0.628,0.587,�k�k��,0.6,��
2021/08/21,17:30,0.595,0.891,0.558,1.073,0.757,0.362,0.627,0.588,�k�k��,1.4,��
2021/08/21,17:40,0.595,0.891,0.559,1.074,0.757,0.362,0.625,0.587,�k�k��,0.9,��
2021/08/21,17:50,0.594,0.891,0.556,1.075,0.755,0.363,0.626,0.588,�k�k��,0.9,�L
2021/08/21,18:00,0.595,0.891,0.559,1.073,0.757,0.362,0.624,0.586,�k,1.2,�L
2021/08/21,18:10,0.597,0.889,0.557,1.074,0.756,0.362,0.627,0.587,�k�k��,1.9,�L
2021/08/21,18:20,0.593,0.888,0.558,1.073,0.755,0.364,0.625,0.586,�k,1.2,�L
2021/08/21,18:30,0.595,0.888,0.556,1.073,0.754,0.363,0.626,0.588,�k�k��,1.7,�L
2021/08/21,18:40,0.595,0.888,0.556,1.072,0.753,0.362,0.626,0.585,�k,1.4,�L
2021/08/21,18:50,0.594,0.888,0.556,1.070,0.753,0.362,0.623,0.585,�k�k��,1.4,�L
2021/08/21,19:00,0.593,0.886,0.558,1.071,0.755,0.363,0.625,0.587,�k�k��,1.4,�L
2021/08/21,19:10,0.593,0.886,0.555,1.072,0.753,0.363,0.626,0.586,�k,0.9,�L
2021/08/21,19:20,0.594,0.885,0.557,1.071,0.753,0.362,0.624,0.586,�k�k��,0.6,�L
2021/08/21,19:30,0.594,0.882,0.557,1.070,0.753,0.362,0.626,0.585,�k��,1.4,�L
2021/08/21,19:40,0.592,0.884,0.555,1.068,0.753,0.362,0.625,0.586,�k�k��,1.5,�L
2021/08/21,19:50,0.590,0.880,0.555,1.068,0.749,0.362,0.623,0.585,�k��,1.2,�L
2021/08/21,20:00,0.589,0.881,0.556,1.068,0.748,0.361,0.624,0.584,���k��,1.7,�L
2021/08/21,20:10,0.590,0.879,0.553,1.067,0.747,0.363,0.624,0.583,�k�k��,0.6,�L
2021/08/21,20:20,0.589,0.878,0.553,1.068,0.746,0.361,0.622,0.583,�k��,0.9,�L
2021/08/21,20:30,0.588,0.877,0.551,1.065,0.743,0.360,0.622,0.582,�k�k��,1.5,�L
2021/08/21,20:40,0.589,0.878,0.551,1.067,0.745,0.360,0.622,0.581,�k�k��,0.9,�L
2021/08/21,20:50,0.590,0.877,0.552,1.066,0.746,0.360,0.622,0.581,�k,0.6,�L
2021/08/21,21:00,0.587,0.874,0.551,1.066,0.747,0.360,0.621,0.583,-,CALM,��
2021/08/21,21:10,0.587,0.877,0.551,1.064,0.745,0.362,0.622,0.583,�k��,0.8,�L
2021/08/21,21:20,0.589,0.878,0.553,1.065,0.746,0.362,0.622,0.583,���k��,0.8,�L
2021/08/21,21:30,0.589,0.877,0.553,1.064,0.745,0.361,0.623,0.583,�k��,0.9,��
2021/08/21,21:40,0.589,0.877,0.552,1.063,0.747,0.362,0.623,0.582,�k�k��,1.5,��
2021/08/21,21:50,0.586,0.876,0.553,1.063,0.747,0.362,0.623,0.584,�k�k��,1.1,��
2021/08/21,22:00,0.590,0.877,0.552,1.063,0.746,0.361,0.622,0.584,�k��,0.8,�L
2021/08/21,22:10,0.587,0.875,0.552,1.065,0.746,0.359,0.621,0.584,�k�k��,0.6,�L
2021/08/21,22:20,0.589,0.878,0.551,1.063,0.746,0.360,0.623,0.583,�k��,1.2,�L
2021/08/21,22:30,0.588,0.877,0.551,1.065,0.745,0.361,0.621,0.584,�k�k��,1.1,�L
2021/08/21,22:40,0.587,0.877,0.552,1.065,0.746,0.360,0.622,0.582,�k�k��,0.6,�L
2021/08/21,22:50,0.588,0.876,0.553,1.065,0.746,0.361,0.622,0.584,�k��,0.9,��
2021/08/21,23:00,0.589,0.877,0.552,1.061,0.748,0.362,0.622,0.584,�k��,1.4,��
2021/08/21,23:10,0.586,0.875,0.553,1.063,0.746,0.359,0.624,0.582,�k�k��,0.9,��
2021/08/21,23:20,0.590,0.875,0.553,1.064,0.746,0.361,0.623,0.584,�k��,0.9,�L
2021/08/21,23:30,0.590,0.877,0.553,1.064,0.747,0.361,0.624,0.582,�k�k��,1.9,�L
2021/08/21,23:40,0.588,0.879,0.553,1.064,0.748,0.360,0.622,0.583,�k�k��,1.7,�L
2021/08/21,23:50,0.589,0.877,0.554,1.064,0.747,0.361,0.623,0.583,�k�k��,1.5,�L
